ネオワイズ彗星

C/2020 P1 ( NEOWISE )

English version
Home page
Updated on January 13, 2021

---------------------------------------------------------------------

・ プロフィール

発見日 2020年8月2日
発見光度 19等
発見者 Near-Earth Object Wide-field Infrared Survey Explorer

・ 写真集

・ 軌道要素

Epoch 2020 Nov. 7.0 TT = JDT 2459160.5
T 2020 Oct. 20.17954 TT                                 Rudenko
q   0.3422144            (2000.0)            P               Q
z  -0.0007446      Peri.    8.89691     +0.49930234     -0.65324907
 +/-0.0000261      Node    53.53551     +0.74502410     -0.01165318
e   1.0002548      Incl.   45.05081     +0.44230788     +0.75705341
From 146 observations 2020 Aug. 2-Oct. 28, mean residual 1".3.

・ 星図

・ 光度変化

        m1 = 14.0 + 5 logΔ + 10.0 log r

---------------------------------------------------------------------

軌道要素はM.P.E.C. 2020-W26に掲載されたものです。
星図はステラナビゲータ Ver.10 (アストロアーツ) で作成したものです。
光度グラフはComet for Windowsで作成したものです。

---------------------------------------------------------------------

Copyright(C) Seiichi Yoshida (comet@aerith.net). All rights reserved.